TimeMST,TemperatureF,Dew PointF,Humidity,Sea Level PressureIn,VisibilityMPH,Wind Direction,Wind SpeedMPH,Gust SpeedMPH,PrecipitationIn,Events,Conditions,WindDirDegrees,DateUTC
12:00 AM,23.0,21.2,93,29.74,10.0,SSW,8.1,-,N/A,,Overcast,200,2014-01-30 07:00:00
12:20 AM,23.0,23.0,100,29.72,7.0,SSW,8.1,16.1,N/A,Snow,Light Snow,200,2014-01-30 07:20:00
12:39 AM,23.0,23.0,100,29.71,10.0,South,9.2,18.4,N/A,,Overcast,190,2014-01-30 07:39:00
12:59 AM,24.8,23.0,93,29.70,4.0,SSW,10.4,17.3,N/A,,Overcast,200,2014-01-30 07:59:00
1:20 AM,23.0,23.0,100,29.69,2.0,South,9.2,-,N/A,,Overcast,190,2014-01-30 08:20:00
1:39 AM,23.0,23.0,100,29.69,1.0,South,10.4,17.3,N/A,,Overcast,190,2014-01-30 08:39:00
2:00 AM,23.0,23.0,100,29.68,1.2,SSW,10.4,16.1,N/A,,Overcast,200,2014-01-30 09:00:00
2:20 AM,23.0,23.0,100,29.67,1.0,SSW,8.1,19.6,N/A,,Overcast,200,2014-01-30 09:20:00
2:40 AM,23.0,23.0,100,29.66,1.0,SSW,9.2,17.3,N/A,Snow,Light Snow,200,2014-01-30 09:40:00
3:00 AM,23.0,21.2,93,29.67,1.5,SSW,10.4,24.2,N/A,,Overcast,200,2014-01-30 10:00:00
3:20 AM,23.0,21.2,93,29.68,1.0,SSW,10.4,21.9,N/A,Snow,Light Snow,210,2014-01-30 10:20:00
3:40 AM,23.0,21.2,93,29.68,0.5,SW,11.5,20.7,N/A,Snow,Heavy Snow,220,2014-01-30 10:40:00
4:00 AM,23.0,21.2,93,29.70,0.8,SW,11.5,18.4,N/A,Snow,Snow,220,2014-01-30 11:00:00
4:20 AM,23.0,21.2,93,29.70,0.8,SSW,10.4,18.4,N/A,Snow,Snow,210,2014-01-30 11:20:00
4:40 AM,23.0,21.2,93,29.71,0.5,SSW,10.4,-,N/A,Snow,Snow,210,2014-01-30 11:40:00
5:00 AM,23.0,21.2,93,29.71,0.8,SSW,6.9,-,N/A,Snow,Snow,210,2014-01-30 12:00:00
5:20 AM,23.0,21.2,93,29.71,0.8,SSW,5.8,-,N/A,Snow,Snow,210,2014-01-30 12:20:00
5:40 AM,23.0,21.2,93,29.72,1.5,SW,5.8,-,N/A,Snow,Light Snow,220,2014-01-30 12:40:00
6:00 AM,23.0,21.2,93,29.72,1.0,SSW,4.6,-,N/A,Snow,Light Snow,210,2014-01-30 13:00:00
6:20 AM,23.0,21.2,93,29.73,1.0,SSW,3.5,-,N/A,Snow,Light Snow,200,2014-01-30 13:20:00
6:40 AM,23.0,21.2,93,29.73,1.0,SSW,5.8,-,N/A,Snow,Light Snow,200,2014-01-30 13:40:00
7:00 AM,23.0,21.2,93,29.74,1.0,SSW,4.6,-,N/A,Snow,Light Snow,210,2014-01-30 14:00:00
7:19 AM,23.0,21.2,93,29.75,0.5,SSW,3.5,-,N/A,Snow,Snow,210,2014-01-30 14:19:00
7:40 AM,23.0,21.2,93,29.75,0.5,SSW,5.8,-,N/A,Snow,Snow,210,2014-01-30 14:40:00
8:00 AM,23.0,21.2,93,29.74,0.8,SSW,5.8,-,N/A,Snow,Light Snow,210,2014-01-30 15:00:00
8:20 AM,23.0,23.0,100,29.75,0.5,SSW,5.8,-,N/A,Snow,Light Snow,200,2014-01-30 15:20:00
8:40 AM,23.0,21.2,93,29.76,0.5,SSW,5.8,-,N/A,Snow,Light Snow,200,2014-01-30 15:40:00
9:00 AM,23.0,23.0,100,29.76,0.8,SSW,6.9,-,N/A,Snow,Light Snow,200,2014-01-30 16:00:00
9:20 AM,23.0,23.0,100,29.76,0.8,SSW,5.8,-,N/A,Snow,Light Snow,210,2014-01-30 16:20:00
9:40 AM,23.0,21.2,93,29.77,0.8,SSW,6.9,-,N/A,,Overcast,200,2014-01-30 16:40:00
10:00 AM,24.8,23.0,93,29.78,0.5,SSW,6.9,-,N/A,Snow,Light Snow,200,2014-01-30 17:00:00
10:20 AM,24.8,23.0,93,29.78,0.5,SSW,6.9,-,N/A,Snow,Light Snow,200,2014-01-30 17:20:00
10:40 AM,26.6,23.0,86,29.77,0.5,SSW,6.9,-,N/A,Snow,Light Snow,200,2014-01-30 17:40:00
11:00 AM,26.6,23.0,86,29.77,0.5,SSW,8.1,20.7,N/A,Fog,Light Freezing Fog,200,2014-01-30 18:00:00
11:20 AM,26.6,23.0,86,29.76,0.5,SSW,6.9,17.3,N/A,Fog-Thunderstorm,Light Freezing Fog,200,2014-01-30 18:20:00
11:40 AM,26.6,23.0,86,29.75,0.5,SSW,5.8,-,N/A,Fog,Light Freezing Fog,200,2014-01-30 18:40:00
12:00 PM,26.6,24.8,93,29.74,0.2,SSW,8.1,-,N/A,Fog,Light Freezing Fog,200,2014-01-30 19:00:00
12:20 PM,26.6,24.8,93,29.73,0.2,SSW,6.9,-,N/A,Fog,Light Freezing Fog,200,2014-01-30 19:20:00
12:40 PM,26.6,24.8,93,29.72,0.2,South,8.1,-,N/A,Fog,Light Freezing Fog,180,2014-01-30 19:40:00
1:00 PM,26.6,24.8,93,29.71,0.2,South,10.4,17.3,N/A,Snow,Light Snow,190,2014-01-30 20:00:00
1:20 PM,26.6,24.8,93,29.71,0.2,South,8.1,-,N/A,Fog,Light Freezing Fog,190,2014-01-30 20:20:00
1:40 PM,26.6,24.8,93,29.70,0.2,South,10.4,-,N/A,Fog,Light Freezing Fog,190,2014-01-30 20:40:00
2:00 PM,26.6,24.8,93,29.70,0.2,South,9.2,-,N/A,Fog,Light Freezing Fog,190,2014-01-30 21:00:00
2:20 PM,26.6,24.8,93,29.70,0.2,South,8.1,-,N/A,Fog,Light Freezing Fog,190,2014-01-30 21:20:00
2:40 PM,26.6,24.8,93,29.70,0.2,South,6.9,-,N/A,Fog,Light Freezing Fog,190,2014-01-30 21:40:00
3:00 PM,26.6,24.8,93,29.69,0.2,South,8.1,17.3,N/A,Fog,Light Freezing Fog,180,2014-01-30 22:00:00
3:20 PM,26.6,24.8,93,29.69,0.2,South,10.4,-,N/A,Snow,Light Snow,180,2014-01-30 22:20:00
3:40 PM,26.6,24.8,93,29.68,0.2,South,9.2,-,N/A,Fog,Light Freezing Fog,190,2014-01-30 22:40:00
4:00 PM,26.6,24.8,93,29.69,0.2,South,9.2,-,N/A,Snow,Light Snow,180,2014-01-30 23:00:00
4:20 PM,26.6,23.0,86,29.69,0.2,South,6.9,-,N/A,Snow,Light Snow,180,2014-01-30 23:20:00
4:40 PM,26.6,23.0,86,29.69,0.2,South,8.1,-,N/A,Fog,Light Freezing Fog,190,2014-01-30 23:40:00
5:00 PM,26.6,23.0,86,29.69,0.2,South,8.1,-,N/A,Fog,Light Freezing Fog,180,2014-01-31 00:00:00
5:20 PM,24.8,23.0,93,29.68,0.2,South,8.1,-,N/A,Fog,Light Freezing Fog,190,2014-01-31 00:20:00
5:39 PM,24.8,23.0,93,29.68,0.5,SSW,8.1,-,N/A,Fog,Light Freezing Fog,200,2014-01-31 00:39:00
6:00 PM,24.8,23.0,93,29.68,0.5,South,5.8,-,N/A,Fog,Light Freezing Fog,190,2014-01-31 01:00:00
6:20 PM,24.8,23.0,93,29.67,0.5,South,5.8,-,N/A,Fog,Light Freezing Fog,190,2014-01-31 01:20:00
6:39 PM,24.8,23.0,93,29.67,0.5,SSW,6.9,-,N/A,Snow,Light Snow,210,2014-01-31 01:39:00
7:00 PM,23.0,21.2,93,29.66,0.8,SSW,5.8,-,N/A,Snow,Snow,200,2014-01-31 02:00:00
7:19 PM,23.0,21.2,93,29.66,0.8,SSW,5.8,-,N/A,Snow,Snow,210,2014-01-31 02:19:00
7:40 PM,23.0,19.4,86,29.66,0.8,SSW,6.9,-,N/A,Snow,Light Snow,210,2014-01-31 02:40:00
8:00 PM,21.2,19.4,93,29.64,1.0,SSW,5.8,-,N/A,Snow,Snow,210,2014-01-31 03:00:00
8:20 PM,-9999,-9999,N/A,29.64,0.5,SSW,4.6,-,N/A,,Unknown,210,2014-01-31 03:20:00
8:40 PM,-9999,-9999,N/A,29.64,0.5,SSW,6.9,-,N/A,,Unknown,200,2014-01-31 03:40:00
9:00 PM,-9999,-9999,N/A,29.64,0.8,SSW,4.6,-,N/A,,Unknown,200,2014-01-31 04:00:00
9:20 PM,-9999,-9999,N/A,29.63,1.8,SSW,4.6,-,N/A,,Unknown,210,2014-01-31 04:20:00
9:40 PM,-9999,-9999,N/A,29.64,1.2,SSW,4.6,-,N/A,,Unknown,200,2014-01-31 04:40:00
10:00 PM,-9999,-9999,N/A,29.62,1.0,SSW,4.6,-,N/A,,Unknown,210,2014-01-31 05:00:00
10:20 PM,-9999,-9999,N/A,29.62,0.8,SW,5.8,-,N/A,,Unknown,220,2014-01-31 05:20:00
10:40 PM,-9999,-9999,N/A,29.61,1.0,SSW,4.6,-,N/A,,Unknown,210,2014-01-31 05:40:00
11:00 PM,-9999,-9999,N/A,29.61,0.8,SSW,4.6,-,N/A,,Unknown,210,2014-01-31 06:00:00
11:20 PM,-9999,-9999,N/A,29.61,0.8,SSW,3.5,-,N/A,,Unknown,210,2014-01-31 06:20:00
11:40 PM,-9999,-9999,N/A,29.61,1.0,SSW,4.6,-,N/A,,Unknown,200,2014-01-31 06:40:00